FW7862 Weather Reports


time (UTC)temp
C
wind
direction
speed
KPH
gust
KPH
rain 1hr
cm
rain 24hr
cm
rain mn
cm
humidity
%
barometer
mb
20260507224607 24 31 0.0 1.6 0.00 0.08 0.08 91 1013.5
20260507224104 24 30 0.0 0.0 0.00 0.08 0.08 91 1013.4
20260507223600 24 32 1.6 1.6 0.00 0.08 0.08 91 1013.5
20260507223057 24 33 1.6 1.6 0.00 0.08 0.08 91 1013.5
20260507222554 24 30 0.0 1.6 0.00 0.08 0.08 91 1013.4
20260507222050 24 25 0.0 0.0 0.00 0.08 0.08 91 1013.5
20260507221547 24 40 3.2 3.2 0.00 0.08 0.08 91 1013.3
20260507221044 25 35 1.6 1.6 0.00 0.08 0.08 91 1013.3
20260507220541 24 36 1.6 1.6 0.00 0.08 0.08 91 1013.3
20260507220038 25 38 1.6 3.2 0.00 0.08 0.08 90 1013.2
20260507215534 25 37 1.6 1.6 0.00 0.08 0.08 90 1013.1
20260507215033 25 36 0.0 0.0 0.00 0.08 0.08 90 1013.2
20260507214530 25 31 0.0 1.6 0.00 0.08 0.08 89 1013.1
20260507214025 25 37 1.6 3.2 0.00 0.08 0.08 89 1013.2
20260507213522 25 34 0.0 0.0 0.00 0.08 0.08 89 1013.1
20260507213019 25 34 0.0 0.0 0.00 0.08 0.08 89 1012.9
20260507212514 25 32 0.0 0.0 0.00 0.08 0.08 89 1012.8
20260507212012 25 32 0.0 0.0 0.00 0.08 0.08 89 1012.9
20260507211508 25 32 0.0 0.0 0.00 0.08 0.08 88 1013.0
20260507211005 25 33 0.0 0.0 0.00 0.08 0.08 90 1013.1
20260507210502 25 37 1.6 1.6 0.00 0.08 0.08 89 1013.1
20260507205958 26 40 0.0 0.0 0.00 0.08 0.08 89 1012.9
20260507205455 25 33 0.0 0.0 0.00 0.08 0.08 89 1013.2
20260507204951 26 36 1.6 1.6 0.00 0.08 0.08 88 1012.9
20260507204448 26 33 1.6 1.6 0.00 0.08 0.08 88 1012.9
20260507203946 26 27 1.6 3.2 0.00 0.08 0.08 88 1013.1
20260507203444 25 23 0.0 0.0 0.00 0.08 0.08 88 1013.2
20260507202939 25 39 1.6 3.2 0.00 0.08 0.08 88 1013.0
20260507202436 25 24 0.0 1.6 0.00 0.08 0.08 89 1013.1
20260507201932 26 347 0.0 0.0 0.00 0.08 0.08 89 1013.1
20260507201433 25 36 0.0 0.0 0.00 0.08 0.08 88 1013.0
20260507200930 25 29 0.0 0.0 0.00 0.08 0.08 88 1013.1
20260507200425 26 24 0.0 0.0 0.00 0.08 0.08 88 1013.4
20260507195921 26 353 0.0 0.0 0.00 0.08 0.08 88 1013.2
20260507195419 26 35 0.0 1.6 0.00 0.08 0.08 87 1013.3
20260507194916 26 20 0.0 0.0 0.00 0.08 0.08 86 1013.4
20260507194413 26 358 0.0 0.0 0.00 0.08 0.08 86 1013.5
20260507193909 26 35 0.0 0.0 0.00 0.08 0.08 86 1013.6
20260507193406 27 9 0.0 0.0 0.00 0.08 0.08 85 1013.5
20260507192902 27 60 0.0 1.6 0.00 0.08 0.08 84 1013.5
20260507192358 27 346 0.0 0.0 0.00 0.08 0.08 84 1013.4
20260507191855 26 9 0.0 1.6 0.00 0.08 0.08 84 1013.6
20260507191351 26 32 0.0 0.0 0.00 0.08 0.08 85 1013.5
20260507190848 26 34 0.0 0.0 0.00 0.08 0.08 85 1013.4
20260507190347 26 37 1.6 1.6 0.00 0.08 0.08 85 1013.7
20260507185845 26 24 0.0 0.0 0.00 0.08 0.08 86 1013.7
20260507185342 26 57 0.0 1.6 0.00 0.08 0.08 86 1013.8
20260507184839 26 74 1.6 1.6 0.00 0.08 0.08 84 1013.5
20260507184337 26 46 0.0 0.0 0.00 0.08 0.08 86 1013.6
20260507183833 26 40 0.0 0.0 0.00 0.08 0.08 86 1013.4
20260507183331 26 303 3.2 3.2 0.00 0.08 0.08 85 1013.6
20260507182828 26 341 1.6 3.2 0.00 0.08 0.08 86 1013.6
20260507182324 25 38 1.6 1.6 0.00 0.08 0.08 86 1014.0
20260507181820 25 72 1.6 1.6 0.00 0.08 0.08 88 1014.0
20260507181316 25 76 1.6 3.2 0.00 0.08 0.08 87 1014.0
20260507180813 25 42 1.6 1.6 0.00 0.08 0.08 87 1014.0
20260507180310 25 38 0.0 0.0 0.00 0.08 0.08 89 1014.1
20260507175805 25 30 0.0 0.0 0.00 0.08 0.08 88 1014.3
20260507175306 25 9 0.0 1.6 0.00 0.08 0.08 88 1014.1
20260507174800 24 353 0.0 0.0 0.00 0.08 0.08 91 1014.3
20260507174258 23 333 1.6 1.6 0.00 0.08 0.08 91 1014.4
20260507173755 22 15 0.0 1.6 0.00 0.08 0.08 93 1014.4
20260507173252 23 43 1.6 3.2 0.00 0.08 0.08 93 1014.2
20260507172748 23 38 1.6 1.6 0.00 0.08 0.08 92 1014.3
20260507172245 23 23 0.0 1.6 0.00 0.08 0.08 92 1014.4
20260507171741 22 29 1.6 1.6 0.00 0.08 0.08 92 1014.4
20260507171238 23 43 1.6 3.2 0.00 0.08 0.08 92 1014.5
20260507170735 22 21 1.6 3.2 0.00 0.08 0.08 94 1014.5
20260507170231 22 34 0.0 1.6 0.00 0.08 0.08 95 1014.5
20260507165727 22 38 1.6 3.2 0.00 0.08 0.08 96 1014.6
20260507165223 21 41 3.2 3.2 0.00 0.08 0.08 98 1014.6
20260507164719 21 22 3.2 3.2 0.00 0.08 0.08 98 1014.8
20260507164217 21 21 0.0 0.0 0.00 0.08 0.08 99 1014.8
20260507163714 21 30 1.6 1.6 0.00 0.08 0.08 99 1014.9
20260507163212 21 26 0.0 0.0 0.00 0.08 0.08 99 1014.7
20260507162708 20 31 1.6 1.6 0.00 0.08 0.08 99 1015.0
20260507162204 20 32 0.0 1.6 0.00 0.08 0.08 99 1014.9
20260507161700 20 30 0.0 0.0 0.00 0.08 0.08 99 1014.8
20260507161156 20 32 0.0 0.0 0.00 0.08 0.08 99 1014.7
20260507160653 20 4 1.6 1.6 0.00 0.08 0.08 99 1014.8
20260507160150 20 13 1.6 1.6 0.00 0.08 0.08 99 1014.7
20260507155645 20 26 0.0 1.6 0.00 0.08 0.08 99 1014.6
20260507155142 20 24 0.0 0.0 0.00 0.08 0.08 99 1014.4
20260507154639 20 39 0.0 0.0 0.00 0.08 0.08 99 1014.8
20260507154137 19 27 0.0 0.0 0.00 0.08 0.08 99 1014.4
20260507153633 19 32 0.0 0.0 0.00 0.08 0.08 99 1014.6
20260507153129 19 35 1.6 1.6 0.00 0.08 0.08 99 1014.5
20260507152626 19 25 1.6 1.6 0.00 0.08 0.08 99 1014.5
20260507152121 19 28 0.0 1.6 0.00 0.08 0.08 99 1014.6
20260507151618 19 69 1.6 1.6 0.00 0.08 0.08 99 1014.7
20260507151115 20 21 0.0 0.0 0.00 0.08 0.08 99 1014.5
20260507150612 20 24 1.6 3.2 0.00 0.08 0.08 99 1014.9
20260507150109 20 32 0.0 0.0 0.00 0.08 0.08 99 1014.6
20260507145603 20 21 0.0 0.0 0.00 0.08 0.08 99 1014.6
20260507145056 20 9 0.0 1.6 0.13 0.08 0.08 99 1014.6
20260507144552 20 23 0.0 0.0 0.30 0.08 0.08 99 1014.7
20260507144050 20 26 0.0 0.0 0.18 0.05 0.05 99 1014.6
20260507143546 20 23 0.0 0.0 0.00 0.03 0.03 99 1014.5
20260507143044 20 295 0.0 1.6 0.00 0.03 0.03 99 1014.7
20260507142539 20 22 0.0 0.0 0.00 0.03 0.03 99 1014.4
20260507142036 20 23 0.0 0.0 0.00 0.03 0.03 99 1014.3
20260507141532 20 31 0.0 0.0 0.00 0.03 0.03 99 1014.1
20260507141029 20 43 0.0 0.0 0.00 0.03 0.03 99 1014.2
20260507140526 21 70 0.0 1.6 0.00 0.03 0.03 99 1014.4
20260507140024 21 30 0.0 0.0 0.00 0.03 0.03 99 1014.3
20260507135520 21 17 0.0 0.0 0.00 0.03 0.03 99 1014.3
20260507135018 21 26 0.0 0.0 0.00 0.03 0.03 99 1014.1
20260507134514 20 26 0.0 0.0 0.00 0.03 0.03 99 1014.0
20260507134009 20 29 0.0 0.0 0.00 0.03 0.03 99 1014.0
20260507133506 20 30 0.0 0.0 0.00 0.03 0.03 99 1014.2
20260507133005 21 25 0.0 0.0 0.00 0.03 0.03 99 1014.0
20260507132500 21 13 1.6 1.6 0.00 0.03 0.03 99 1014.1
20260507131956 21 28 0.0 0.0 0.00 0.03 0.03 99 1014.2
20260507131454 21 34 0.0 0.0 0.00 0.03 0.03 99 1014.0
20260507130951 21 32 0.0 0.0 0.00 0.03 0.03 99 1013.8
20260507130448 21 29 0.0 0.0 0.00 0.03 0.03 99 1013.9
20260507125946 21 31 0.0 0.0 0.00 0.03 0.03 99 1013.9
20260507125444 22 24 0.0 0.0 0.00 0.03 0.03 99 1013.8
20260507124941 22 26 0.0 0.0 0.00 0.03 0.03 99 1013.7
20260507124437 22 31 0.0 0.0 0.00 0.03 0.03 99 1013.6
20260507123936 22 24 0.0 0.0 0.00 0.03 0.03 99 1013.5
20260507123433 22 28 0.0 0.0 0.00 0.03 0.03 99 1013.4
20260507122929 22 28 0.0 0.0 0.00 0.03 0.03 99 1013.2
20260507122424 22 26 0.0 0.0 0.00 0.03 0.03 99 1013.2
20260507121921 23 32 0.0 0.0 0.00 0.03 0.03 99 1012.9
20260507121416 23 27 0.0 0.0 0.00 0.03 0.03 99 1012.9
20260507120913 24 343 0.0 0.0 0.13 0.03 0.03 99 1012.6
20260507120410 24 283 1.6 1.6 0.13 0.03 0.03 99 1012.6
20260507115906 24 358 0.0 0.0 0.00 0.00 0.00 99 1012.4
20260507115402 25 345 0.0 0.0 0.00 0.00 0.00 99 1012.6
20260507114857 25 260 4.8 4.8 0.00 0.00 0.00 99 1012.0
20260507114355 25 316 1.6 1.6 0.00 0.00 0.00 99 1012.1
20260507113852 25 319 6.4 8.0 0.00 0.00 0.00 99 1012.0
20260507113349 25 299 1.6 3.2 0.00 0.00 0.00 99 1012.1
20260507112846 25 280 3.2 8.0 0.00 0.00 0.00 99 1012.1
20260507112343 25 279 3.2 3.2 0.00 0.00 0.00 99 1011.8
20260507111841 25 290 1.6 3.2 0.00 0.00 0.00 99 1011.8
20260507111338 25 9 1.6 3.2 0.00 0.00 0.00 99 1011.9
20260507110834 25 284 4.8 4.8 0.00 0.00 0.00 99 1011.7
20260507110330 25 300 1.6 3.2 0.00 0.00 0.00 99 1011.7
20260507105827 25 264 4.8 4.8 0.00 0.00 0.00 99 1011.6
20260507105324 25 307 1.6 3.2 0.00 0.00 0.00 99 1011.5
20260507104821 25 285 4.8 4.8 0.00 0.00 0.00 99 1011.6
20260507104317 25 289 4.8 4.8 0.00 0.00 0.00 99 1011.7
20260507103813 25 288 4.8 4.8 0.00 0.00 0.00 99 1011.4
20260507103310 25 273 3.2 4.8 0.00 0.00 0.00 99 1011.3
20260507102806 25 327 0.0 1.6 0.00 0.00 0.00 99 1011.4
20260507102306 25 286 4.8 8.0 0.00 0.00 0.00 99 1011.2
20260507101759 25 307 6.4 8.0 0.00 0.00 0.00 99 1011.3
20260507101254 25 290 3.2 4.8 0.00 0.00 0.00 99 1011.2
20260507100751 25 287 4.8 4.8 0.00 0.00 0.00 99 1011.4
20260507100250 25 269 3.2 3.2 0.00 0.00 0.00 99 1011.5
20260507095747 25 280 4.8 4.8 0.00 0.00 0.00 99 1011.3
20260507095243 25 284 4.8 4.8 0.00 0.00 0.00 99 1011.1
20260507094740 25 295 3.2 4.8 0.00 0.00 0.00 99 1011.1
20260507094237 25 277 4.8 4.8 0.00 0.00 0.00 99 1011.1
20260507093734 25 324 1.6 3.2 0.00 0.00 0.00 99 1011.1
20260507093233 25 282 4.8 4.8 0.00 0.00 0.00 99 1011.2
20260507092730 25 301 3.2 3.2 0.00 0.00 0.00 99 1010.9
20260507092226 25 298 3.2 3.2 0.00 0.00 0.00 99 1011.2
20260507091723 25 9 1.6 1.6 0.00 0.00 0.00 99 1010.9
20260507091219 25 283 4.8 4.8 0.00 0.00 0.00 99 1010.8
20260507090719 25 260 4.8 4.8 0.00 0.00 0.00 99 1011.1
20260507090216 25 286 4.8 4.8 0.00 0.00 0.00 99 1011.0
20260507085714 25 235 3.2 4.8 0.00 0.00 0.00 99 1011.2
20260507085211 25 233 4.8 4.8 0.00 0.00 0.00 99 1011.0
20260507084707 25 304 8.0 12.9 0.00 0.00 0.00 99 1011.3
20260507084203 25 291 4.8 4.8 0.00 0.00 0.00 99 1011.0
20260507083700 25 269 4.8 4.8 0.00 0.00 0.00 99 1011.0
20260507083157 25 288 3.2 3.2 0.00 0.00 0.00 99 1011.1
20260507082653 25 281 4.8 8.0 0.00 0.00 0.00 99 1011.0
20260507082150 25 281 4.8 4.8 0.00 0.00 0.00 99 1011.0
20260507081646 25 277 4.8 4.8 0.00 0.00 0.00 99 1010.9
20260507081143 25 296 3.2 3.2 0.00 0.00 0.00 99 1011.0
20260507080639 25 297 3.2 3.2 0.00 0.00 0.00 99 1011.1
20260507080136 25 247 1.6 1.6 0.00 0.00 0.00 99 1011.2
20260507075631 25 317 3.2 4.8 0.00 0.00 0.00 99 1011.1
20260507075128 25 276 3.2 3.2 0.00 0.00 0.00 99 1011.1
20260507074624 25 239 1.6 1.6 0.00 0.00 0.00 99 1011.2
20260507074123 25 186 1.6 3.2 0.00 0.00 0.00 99 1011.2
20260507073619 25 274 3.2 3.2 0.00 0.00 0.00 99 1011.6
20260507073115 25 263 1.6 3.2 0.00 0.00 0.00 99 1011.6
20260507072613 25 289 4.8 4.8 0.00 0.00 0.00 99 1011.6
20260507072110 25 260 4.8 4.8 0.00 0.00 0.00 99 1011.6
20260507071607 25 259 4.8 4.8 0.00 0.00 0.00 99 1011.9
20260507071103 25 286 3.2 3.2 0.00 0.00 0.00 99 1011.4
20260507070601 25 323 0.0 1.6 0.00 0.00 0.00 99 1011.6
20260507070058 25 261 3.2 4.8 0.00 0.00 0.00 99 1011.5
20260507065554 25 280 4.8 8.0 0.00 0.00 0.00 99 1011.5
20260507065051 25 320 1.6 3.2 0.00 0.00 0.00 99 1011.8
20260507064549 25 316 1.6 3.2 0.00 0.00 0.00 99 1011.8
20260507064047 25 312 1.6 1.6 0.00 0.00 0.00 99 1011.8
20260507063544 25 290 6.4 8.0 0.00 0.00 0.00 99 1011.9
20260507063041 25 313 4.8 8.0 0.00 0.00 0.00 99 1011.7
20260507062538 25 209 3.2 3.2 0.00 0.00 0.00 99 1011.7
20260507062036 25 267 4.8 4.8 0.00 0.00 0.00 99 1011.8
20260507061533 25 268 4.8 11.3 0.00 0.00 0.00 99 1011.8
20260507061031 25 283 4.8 4.8 0.00 0.00 0.00 99 1011.8
20260507060529 25 239 9.7 12.9 0.00 0.00 0.00 99 1011.8
20260507060025 25 259 3.2 4.8 0.00 0.00 0.00 99 1011.8
20260507055525 25 296 3.2 3.2 0.00 0.00 0.00 99 1011.6
20260507055022 25 275 1.6 3.2 0.00 0.00 0.00 99 1011.8
20260507054518 25 282 9.7 14.5 0.00 0.00 0.00 99 1011.7
20260507054015 25 280 1.6 1.6 0.00 0.00 0.00 99 1011.9
20260507053513 25 239 3.2 4.8 0.00 0.00 0.00 99 1011.6
20260507053012 25 311 1.6 3.2 0.00 0.00 0.00 99 1011.8
20260507052509 25 270 3.2 4.8 0.00 0.00 0.00 99 1011.9
20260507052005 25 260 4.8 4.8 0.00 0.00 0.00 99 1011.7
20260507051503 25 290 8.0 11.3 0.00 0.00 0.00 99 1011.6
20260507051000 25 283 1.6 3.2 0.00 0.00 0.00 99 1011.7
20260507050456 25 279 8.0 9.7 0.00 0.00 0.00 99 1011.9
20260507045953 25 262 6.4 8.0 0.00 0.00 0.00 99 1011.7
20260507045449 25 212 3.2 3.2 0.00 0.00 0.00 99 1011.6
20260507044947 25 265 4.8 8.0 0.00 0.00 0.00 99 1011.5
20260507044444 25 276 4.8 8.0 0.00 0.00 0.00 99 1011.7
20260507043940 25 298 1.6 1.6 0.00 0.00 0.00 99 1011.5
20260507043436 25 314 0.0 1.6 0.00 0.00 0.00 99 1011.1
20260507042932 25 290 4.8 8.0 0.00 0.00 0.00 99 1011.0
20260507042429 25 335 3.2 8.0 0.00 0.00 0.00 99 1011.0
20260507041925 25 284 3.2 4.8 0.00 0.00 0.00 99 1011.2
20260507041422 25 31 3.2 4.8 0.00 0.00 0.00 99 1011.1
20260507040920 25 268 1.6 1.6 0.00 0.00 0.00 99 1011.3
20260507040415 25 356 4.8 8.0 0.00 0.00 0.00 99 1011.3
20260507035911 25 346 0.0 1.6 0.00 0.00 0.00 99 1011.4
20260507035408 25 296 1.6 1.6 0.00 0.00 0.00 99 1011.5
20260507034904 25 323 3.2 4.8 0.00 0.00 0.00 99 1011.2
20260507034401 25 48 4.8 4.8 0.00 0.00 0.00 99 1011.6
20260507033859 25 306 3.2 3.2 0.00 0.00 0.00 99 1011.4
20260507033357 25 294 3.2 3.2 0.00 0.00 0.00 99 1011.3
20260507032854 25 269 6.4 8.0 0.00 0.00 0.00 99 1011.3
20260507032350 25 266 4.8 4.8 0.00 0.00 0.00 99 1011.5
20260507031847 25 312 1.6 3.2 0.00 0.00 0.00 99 1011.4
20260507031344 25 18 1.6 1.6 0.00 0.00 0.00 99 1011.3
20260507030840 25 348 0.0 1.6 0.00 0.00 0.00 99 1011.4
20260507030338 25 110 1.6 3.2 0.00 0.00 0.00 99 1011.5
20260507025834 25 333 3.2 3.2 0.00 0.00 0.00 99 1011.4
20260507025332 25 265 1.6 3.2 0.00 0.00 0.00 99 1011.6
20260507024830 25 59 1.6 3.2 0.00 0.00 0.00 99 1011.6
20260507024327 25 51 1.6 3.2 0.00 0.00 0.00 99 1011.8
20260507023822 25 237 1.6 3.2 0.00 0.00 0.00 99 1012.0
20260507023319 25 37 0.0 0.0 0.00 0.00 0.00 99 1012.0
20260507022816 25 22 0.0 0.0 0.00 0.00 0.00 99 1011.9
20260507022312 25 56 0.0 1.6 0.00 0.00 0.00 99 1011.7
20260507021809 25 357 0.0 0.0 0.00 0.00 0.00 99 1011.9
20260507021305 25 40 0.0 0.0 0.00 0.00 0.00 99 1011.9
20260507020803 25 38 0.0 1.6 0.00 0.00 0.00 99 1011.9
20260507020259 25 350 0.0 0.0 0.00 0.00 0.00 99 1011.9
20260507015757 25 336 1.6 1.6 0.00 0.00 0.00 98 1011.8
20260507015254 25 334 1.6 1.6 0.00 0.00 0.00 98 1011.5
20260507014751 25 191 1.6 3.2 0.00 0.00 0.00 98 1011.5
20260507014247 26 316 3.2 3.2 0.00 0.00 0.00 98 1011.5
20260507013743 26 338 0.0 1.6 0.00 0.00 0.00 97 1011.5
20260507013241 26 316 1.6 1.6 0.00 0.00 0.00 97 1011.2
20260507012738 26 18 0.0 1.6 0.00 0.00 0.00 97 1011.2
20260507012233 26 277 1.6 3.2 0.00 0.00 0.00 97 1011.2
20260507011732 26 255 1.6 1.6 0.00 0.00 0.00 97 1011.0
20260507011228 26 59 1.6 1.6 0.00 0.00 0.00 97 1010.9
20260507010727 26 344 1.6 1.6 0.00 0.00 0.00 97 1010.7
20260507010224 26 70 1.6 1.6 0.00 0.00 0.00 97 1010.8
20260507005721 26 74 1.6 3.2 0.00 0.00 0.00 97 1010.8
20260507005217 26 334 1.6 3.2 0.00 0.00 0.00 97 1010.6
20260507004714 26 343 1.6 1.6 0.00 0.00 0.00 96 1011.0
20260507004212 26 39 0.0 1.6 0.00 0.00 0.00 96 1010.7
20260507003708 26 312 3.2 3.2 0.00 0.00 0.00 96 1010.5
20260507003203 26 266 1.6 3.2 0.00 0.00 0.00 96 1010.6
20260507002659 26 125 1.6 3.2 0.00 0.00 0.00 96 1010.4
20260507002156 26 8 1.6 1.6 0.00 0.00 0.00 95 1010.5
20260507001652 26 345 1.6 3.2 0.00 0.00 0.00 95 1010.6
20260507001150 26 46 1.6 1.6 0.00 0.00 0.00 94 1010.5
20260507000646 26 60 1.6 3.2 0.00 0.00 0.00 94 1010.7
20260507000142 26 45 0.0 1.6 0.00 0.00 0.00 94 1010.7
20260506235639 26 272 3.2 3.2 0.00 0.00 0.00 93 1010.7
20260506235133 26 262 3.2 4.8 0.00 0.00 0.00 93 1010.7
20260506234631 26 16 0.0 0.0 0.00 0.00 0.00 92 1010.7
20260506234128 26 241 1.6 3.2 0.00 0.00 0.00 92 1010.6
20260506233625 26 64 1.6 1.6 0.00 0.00 0.00 92 1010.6
20260506233122 27 60 1.6 1.6 0.00 0.00 0.00 91 1010.5
20260506232618 27 21 0.0 0.0 0.00 0.00 0.00 91 1010.6
20260506232114 27 75 3.2 3.2 0.00 0.00 0.00 91 1010.3
20260506231611 27 132 1.6 1.6 0.00 0.00 0.00 91 1010.6
20260506231109 27 327 1.6 3.2 0.00 0.00 0.00 91 1010.5
20260506230605 27 85 1.6 3.2 0.00 0.00 0.00 91 1010.4
20260506230103 27 69 1.6 3.2 0.00 0.00 0.00 91 1010.2
20260506225559 27 112 1.6 1.6 0.00 0.00 0.00 90 1010.5
20260506225055 27 315 3.2 3.2 0.00 0.00 0.00 90 1010.5